TimeEDT,TemperatureF,Dew PointF,Humidity,Sea Level PressureIn,VisibilityMPH,Wind Direction,Wind SpeedMPH,Gust SpeedMPH,PrecipitationIn,Events,Conditions,WindDirDegrees,DateUTC
12:53 AM,63.0,57.0,81,30.27,10.0,Calm,Calm,-,N/A,,Clear,0,2013-08-25 04:53:00
1:53 AM,59.0,55.0,87,30.28,10.0,North,3.5,-,N/A,,Clear,10,2013-08-25 05:53:00
2:53 AM,57.9,54.0,87,30.27,10.0,Calm,Calm,-,N/A,,Clear,0,2013-08-25 06:53:00
3:53 AM,55.0,53.1,93,30.28,8.0,NE,3.5,-,N/A,,Scattered Clouds,40,2013-08-25 07:53:00
4:53 AM,55.9,53.1,90,30.28,10.0,Calm,Calm,-,N/A,,Scattered Clouds,0,2013-08-25 08:53:00
5:53 AM,55.0,53.1,93,30.30,10.0,Calm,Calm,-,N/A,,Scattered Clouds,0,2013-08-25 09:53:00
6:53 AM,53.1,51.1,93,30.33,10.0,NNE,3.5,-,N/A,,Clear,20,2013-08-25 10:53:00
7:53 AM,57.0,54.0,89,30.36,10.0,Calm,Calm,-,N/A,,Clear,0,2013-08-25 11:53:00
8:53 AM,62.1,55.9,80,30.37,10.0,Calm,Calm,-,N/A,,Clear,0,2013-08-25 12:53:00
9:53 AM,66.0,57.0,73,30.37,10.0,Calm,Calm,-,N/A,,Clear,0,2013-08-25 13:53:00
10:53 AM,71.1,57.0,61,30.36,10.0,Variable,3.5,-,N/A,,Clear,0,2013-08-25 14:53:00
11:53 AM,75.0,57.0,53,30.34,10.0,Calm,Calm,-,N/A,,Partly Cloudy,0,2013-08-25 15:53:00
12:53 PM,77.0,54.0,45,30.33,10.0,SSE,4.6,-,N/A,,Partly Cloudy,150,2013-08-25 16:53:00
1:53 PM,79.0,54.0,42,30.30,10.0,East,5.8,-,N/A,,Partly Cloudy,90,2013-08-25 17:53:00
2:53 PM,79.0,50.0,36,30.29,10.0,SSE,4.6,-,N/A,,Scattered Clouds,160,2013-08-25 18:53:00
3:53 PM,81.0,46.9,30,30.27,10.0,Variable,3.5,-,N/A,,Mostly Cloudy,0,2013-08-25 19:53:00
4:53 PM,82.0,48.0,30,30.26,10.0,North,4.6,-,N/A,,Scattered Clouds,10,2013-08-25 20:53:00
5:53 PM,81.0,48.9,33,30.25,10.0,NNE,4.6,-,N/A,,Scattered Clouds,30,2013-08-25 21:53:00
6:53 PM,80.1,53.1,39,30.25,10.0,North,3.5,-,N/A,,Scattered Clouds,360,2013-08-25 22:53:00
7:53 PM,72.0,57.9,61,30.25,10.0,North,4.6,-,N/A,,Scattered Clouds,350,2013-08-25 23:53:00
8:53 PM,66.9,59.0,76,30.26,10.0,Calm,Calm,-,N/A,,Scattered Clouds,0,2013-08-26 00:53:00
9:53 PM,64.0,57.9,80,30.28,10.0,North,3.5,-,N/A,,Scattered Clouds,360,2013-08-26 01:53:00
10:53 PM,62.1,57.0,84,30.29,10.0,North,3.5,-,N/A,,Partly Cloudy,360,2013-08-26 02:53:00
11:53 PM,60.1,57.0,90,30.29,10.0,Calm,Calm,-,N/A,,Partly Cloudy,0,2013-08-26 03:53:00